Nottely Observed Data For Previous 48 Hours

Caption
Day and Hour Reservoir Elevation (behind dam)* Tailwater Elevation (below dam)* Average Hourly Discharge*
1/19/2019 2 AM EST 1,761.67 1,607.17 62
1/19/2019 3 AM EST 1,761.69 1,607.17 61
1/19/2019 4 AM EST 1,761.70 1,607.17 62
1/19/2019 5 AM EST 1,761.72 1,607.23 62
1/19/2019 6 AM EST 1,761.73 1,607.17 62
1/19/2019 7 AM EST 1,761.75 1,607.17 62
1/19/2019 8 AM EST 1,761.77 1,607.17 62
1/19/2019 9 AM EST 1,761.78 1,607.17 62
1/19/2019 10 AM EST 1,761.80 1,607.17 62
1/19/2019 11 AM EST 1,761.83 1,607.17 62
1/19/2019 12 PM EST 1,761.85 1,607.17 62
1/19/2019 1 PM EST 1,761.86 1,607.17 62
1/19/2019 2 PM EST 1,761.90 1,607.17 62
1/19/2019 3 PM EST 1,761.92 1,607.17 62
1/19/2019 4 PM EST 1,761.96 1,607.17 62
1/19/2019 5 PM EST 1,761.99 1,607.17 63
1/19/2019 6 PM EST 1,762.03 1,607.17 62
1/19/2019 7 PM EST 1,762.08 1,607.17 63
1/19/2019 8 PM EST 1,762.15 1,607.18 62
1/19/2019 9 PM EST 1,762.23 1,607.18 63
1/19/2019 10 PM EST 1,762.33 1,607.17 62
1/19/2019 11 PM EST 1,762.43 1,607.17 63
1/20/2019 12 AM EST 1,762.52 1,607.17 62
1/20/2019 1 AM EST 1,762.59 1,607.17 63
1/20/2019 2 AM EST 1,762.65 1,607.17 63
1/20/2019 3 AM EST 1,762.71 1,607.18 62
1/20/2019 4 AM EST 1,762.77 1,607.18 63
1/20/2019 5 AM EST 1,762.81 1,607.18 62
1/20/2019 6 AM EST 1,762.86 1,607.18 63
1/20/2019 7 AM EST 1,762.89 1,607.18 62
1/20/2019 8 AM EST 1,762.95 1,607.18 63
1/20/2019 9 AM EST 1,762.98 1,607.18 62
1/20/2019 10 AM EST 1,763.03 1,607.18 63
1/20/2019 11 AM EST 1,763.07 1,607.18 62
1/20/2019 12 PM EST 1,763.10 1,607.18 63
1/20/2019 1 PM EST 1,763.13 1,607.18 62
1/20/2019 2 PM EST 1,763.15 1,607.18 63
1/20/2019 3 PM EST 1,763.19 1,607.18 62
1/20/2019 4 PM EST 1,763.22 1,607.18 63
1/20/2019 5 PM EST 1,763.25 1,607.18 62
1/20/2019 6 PM EST 1,763.27 1,607.18 63
1/20/2019 7 PM EST 1,763.30 1,607.18 63
1/20/2019 8 PM EST 1,763.33 1,607.18 62
1/20/2019 9 PM EST 1,763.35 1,607.18 63
1/20/2019 10 PM EST 1,763.39 1,607.18 62
1/20/2019 11 PM EST 1,763.41 1,607.18 63
1/21/2019 12 AM EST 1,763.44 1,607.18 62
1/21/2019 1 AM EST 1,763.46 1,607.18 63
1/21/2019 2 AM EST 1,763.49 1,607.18 62
1/21/2019 3 AM EST 1,763.51 1,607.18 63
1/21/2019 4 AM EST 1,763.53 1,610.85 173
1/21/2019 5 AM EST 1,763.53 1,611.16 1,352

Elevations are in feet above sea level. Discharges are in cubic feet per second and are reported at the end of the hour.